Worthington, MN

5:09 PM CDT on March 25, 2017 (GMT -0500)
Worthington Municipal

Weather History for KOTG - November, 2011

Change the Weather History Date:

Monday, November 21, 2011

  Actual Average Record
Temperature  
Mean Temperature 28 °F -  
Max Temperature 37 °F 36 °F 68 °F (2012)
Min Temperature 19 °F 22 °F -4 °F (1985)
Degree Days  
Heating Degree Days 37    
Moisture  
Dew Point 22 °F    
Average Humidity 75    
Maximum Humidity 86    
Minimum Humidity 65    
Precipitation  
Precipitation 0.00 in - - ()
Sea Level Pressure  
Sea Level Pressure 30.16 in    
Wind  
Wind Speed 9 mph (SSE)    
Max Wind Speed 13 mph    
Max Gust Speed 16 mph    
Visibility 9 miles    
Events      
Averages and records for this station are not official NWS values.
T = Trace of Precipitation, MM = Missing Value Source: NWS Daily Summary

Daily Weather History Graph

Daily Weather History Graph

Search for Another Location

Airport or City:

Trip Planner

Search our weather history database for the weather conditions in past years. The results will help you decide how hot, cold, wet, or windy it might be!

Date:

Astronomy

Nov. 21, 2011 Rise Set
Actual Time 7:23 AM CST 4:52 PM CST
Civil Twilight 6:52 AM CST 5:23 PM CST
Nautical Twilight 6:17 AM CST 5:58 PM CST
Astronomical Twilight 5:43 AM CST 6:32 PM CST
Moon 2:56 AM CST (11/21) 2:20 PM CST (11/21)
Length of Visible Light 10h 31m
Length of Day
9h 28m
Waning Crescent, 17% of the Moon is Illuminated
Nov 21
Waning Crescent
Nov 25
New
Dec 2
First Quarter
Dec 10
Full
Dec 17
Last Quarter

Hourly Weather History & Observations

Time (CST) Temp. Windchill Dew Point Humidity Pressure Visibility Wind Dir Wind Speed Gust Speed Precip Events Conditions
12:15 AM 19.4 °F 8.6 °F 15.8 °F 86% 30.21 in 10.0 mi South 9.2 mph - N/A   Overcast
12:35 AM 21.2 °F 8.9 °F 15.8 °F 80% 30.20 in 10.0 mi South 12.7 mph - N/A   Scattered Clouds
12:55 AM 21.2 °F 9.5 °F 15.8 °F 80% 30.20 in 10.0 mi South 11.5 mph - N/A   Mostly Cloudy
1:15 AM 21.2 °F 10.1 °F 15.8 °F 80% 30.19 in 10.0 mi South 10.4 mph - N/A   Overcast
1:35 AM 21.2 °F 11.7 °F 15.8 °F 80% 30.20 in 10.0 mi SSW 8.1 mph - N/A   Overcast
1:55 AM 23.0 °F 12.4 °F 15.8 °F 74% 30.19 in 10.0 mi SSW 10.4 mph - N/A   Overcast
2:35 AM 24.8 °F 15.3 °F 17.6 °F 74% 30.19 in 10.0 mi SSW 9.2 mph - N/A   Partly Cloudy
2:55 AM 23.0 °F 13.9 °F 17.6 °F 80% 30.17 in 10.0 mi South 8.1 mph - N/A   Mostly Cloudy
3:15 AM 23.0 °F 13.9 °F 17.6 °F 80% 30.17 in 10.0 mi South 8.1 mph - N/A   Overcast
3:35 AM 24.8 °F 16.1 °F 17.6 °F 74% 30.16 in 10.0 mi South 8.1 mph - N/A   Overcast
3:55 AM 24.8 °F 16.9 °F 17.6 °F 74% 30.17 in 10.0 mi South 6.9 mph - N/A   Overcast
4:15 AM 24.8 °F 16.1 °F 17.6 °F 74% 30.18 in 10.0 mi SSW 8.1 mph - N/A   Overcast
4:35 AM 24.8 °F 14.6 °F 17.6 °F 74% 30.19 in 10.0 mi SSW 10.4 mph - N/A   Overcast
4:55 AM 24.8 °F 14.0 °F 17.6 °F 74% 30.19 in 10.0 mi SSW 11.5 mph - N/A   Overcast
5:15 AM 24.8 °F 17.9 °F 17.6 °F 74% 30.18 in 10.0 mi South 5.8 mph - N/A   Overcast
5:35 AM 24.8 °F 16.9 °F 17.6 °F 74% 30.18 in 10.0 mi South 6.9 mph - N/A   Scattered Clouds
5:55 AM 24.8 °F 16.1 °F 17.6 °F 74% 30.18 in 10.0 mi South 8.1 mph - N/A   Partly Cloudy
6:15 AM 24.8 °F 15.3 °F 17.6 °F 74% 30.20 in 10.0 mi SSW 9.2 mph - N/A   Mostly Cloudy
6:35 AM 23.0 °F 13.9 °F 15.8 °F 74% 30.18 in 10.0 mi South 8.1 mph - N/A   Partly Cloudy
6:55 AM 21.2 °F 14.9 °F 15.8 °F 80% 30.19 in 10.0 mi SSE 4.6 mph - N/A   Clear
7:15 AM 21.2 °F 16.4 °F 15.8 °F 80% 30.18 in 10.0 mi SSE 3.5 mph - N/A   Clear
7:35 AM 19.4 °F 12.8 °F 15.8 °F 86% 30.17 in 10.0 mi SSE 4.6 mph - N/A   Clear
7:55 AM 19.4 °F 12.8 °F 15.8 °F 86% 30.17 in 10.0 mi South 4.6 mph - N/A   Clear
8:15 AM 19.4 °F 10.4 °F 15.8 °F 86% 30.17 in 10.0 mi South 6.9 mph - N/A   Clear
8:35 AM 21.2 °F 12.6 °F 15.8 °F 80% 30.17 in 9.0 mi South 6.9 mph - N/A   Clear
8:55 AM 23.0 °F 13.9 °F 17.6 °F 80% 30.18 in 10.0 mi South 8.1 mph - N/A   Clear
9:15 AM 24.8 °F 15.3 °F 17.6 °F 74% 30.18 in 10.0 mi South 9.2 mph - N/A   Clear
9:35 AM 26.6 °F 16.8 °F 19.4 °F 74% 30.18 in 10.0 mi South 10.4 mph - N/A   Clear
9:55 AM 28.4 °F 20.4 °F 21.2 °F 74% 30.19 in 10.0 mi South 8.1 mph - N/A   Clear
10:15 AM 30.2 °F 21.3 °F 21.2 °F 69% 30.20 in 10.0 mi South 10.4 mph - N/A   Clear
10:35 AM 32.0 °F 23.6 °F 23.0 °F 69% 30.19 in 10.0 mi South 10.4 mph - N/A   Clear
10:55 AM 33.8 °F 25.8 °F 23.0 °F 65% 30.19 in 10.0 mi South 10.4 mph - N/A   Clear
11:15 AM 33.8 °F 25.8 °F 24.8 °F 70% 30.23 in 10.0 mi South 10.4 mph - N/A   Clear
11:35 AM 33.8 °F 26.4 °F 24.8 °F 70% 30.22 in 10.0 mi SSE 9.2 mph - N/A   Clear
11:55 AM 33.8 °F 25.8 °F 24.8 °F 70% 30.21 in 10.0 mi SSE 10.4 mph - N/A   Clear
12:15 PM 33.8 °F 25.8 °F 24.8 °F 70% 30.20 in 10.0 mi SSE 10.4 mph - N/A   Clear
12:35 PM 35.6 °F 28.0 °F 24.8 °F 65% 30.19 in 10.0 mi SSE 10.4 mph - N/A   Clear
12:55 PM 35.6 °F 27.1 °F 26.6 °F 70% 30.17 in 10.0 mi South 12.7 mph - N/A   Clear
1:15 PM 37.4 °F 29.3 °F 26.6 °F 65% 30.16 in 10.0 mi SSE 12.7 mph - N/A   Scattered Clouds
1:35 PM 35.6 °F 28.6 °F 26.6 °F 70% 30.13 in 10.0 mi SSE 9.2 mph - N/A   Mostly Cloudy
1:55 PM 35.6 °F 28.0 °F 26.6 °F 70% 30.13 in 8.0 mi SSE 10.4 mph 16.1 mph N/A   Mostly Cloudy
2:15 PM 35.6 °F 28.6 °F 26.6 °F 70% 30.13 in 8.0 mi SSE 9.2 mph - N/A   Overcast
2:35 PM 35.6 °F 28.0 °F 26.6 °F 70% 30.12 in 8.0 mi SE 10.4 mph - N/A   Overcast
2:55 PM 35.6 °F 29.2 °F 26.6 °F 70% 30.13 in 8.0 mi South 8.1 mph - N/A   Overcast
3:15 PM 35.6 °F 27.5 °F 26.6 °F 70% 30.12 in 9.0 mi SSE 11.5 mph 16.1 mph N/A   Overcast
3:35 PM 33.8 °F 27.0 °F 26.6 °F 75% 30.11 in 9.0 mi SSE 8.1 mph - N/A   Overcast
3:55 PM 33.8 °F 24.8 °F 26.6 °F 75% 30.11 in 10.0 mi SSE 12.7 mph - N/A   Overcast
4:15 PM 33.8 °F 25.8 °F 24.8 °F 70% 30.11 in 10.0 mi SE 10.4 mph - N/A   Overcast
4:55 PM 33.8 °F 25.3 °F 26.6 °F 75% 30.12 in 10.0 mi SE 11.5 mph - N/A   Overcast
5:15 PM 33.8 °F 24.8 °F 26.6 °F 75% 30.13 in 10.0 mi SE 12.7 mph - N/A   Overcast
5:35 PM 33.8 °F 25.3 °F 26.6 °F 75% 30.11 in 9.0 mi SE 11.5 mph - N/A   Overcast
6:15 PM 33.8 °F 27.0 °F 26.6 °F 75% 30.13 in 6.0 mi SE 8.1 mph - N/A   Overcast
6:35 PM 33.8 °F 27.0 °F 26.6 °F 75% 30.13 in 5.0 mi SSE 8.1 mph - N/A   Overcast
6:55 PM 33.8 °F 26.4 °F 26.6 °F 75% 30.12 in 5.0 mi SSE 9.2 mph - N/A   Overcast
7:15 PM 33.8 °F 26.4 °F 28.4 °F 81% 30.14 in 4.0 mi SSE 9.2 mph - N/A   Overcast
7:35 PM 33.8 °F 26.4 °F 28.4 °F 81% 30.12 in 3.0 mi SE 9.2 mph - N/A   Overcast
7:55 PM 33.8 °F 27.0 °F 28.4 °F 81% 30.10 in 3.0 mi SE 8.1 mph - N/A   Overcast
8:15 PM 33.8 °F 27.7 °F 28.4 °F 81% 30.10 in 3.0 mi SE 6.9 mph - N/A   Overcast
8:35 PM 33.8 °F 26.4 °F 28.4 °F 81% 30.09 in 3.0 mi SE 9.2 mph - N/A   Overcast
8:55 PM 33.8 °F 27.7 °F 28.4 °F 81% 30.10 in 3.0 mi SSE 6.9 mph - N/A   Overcast
9:35 PM 33.8 °F 28.6 °F 28.4 °F 81% 30.11 in 3.0 mi SSE 5.8 mph - N/A   Overcast
9:55 PM 33.8 °F 26.4 °F 28.4 °F 81% 30.11 in 3.0 mi SSE 9.2 mph - N/A   Overcast
10:15 PM 33.8 °F 26.4 °F 28.4 °F 81% 30.11 in 3.0 mi SSE 9.2 mph - N/A   Overcast
10:35 PM 33.8 °F 27.0 °F 28.4 °F 81% 30.11 in 3.0 mi SSE 8.1 mph - N/A   Overcast
10:55 PM 35.6 °F 28.0 °F 28.4 °F 75% 30.10 in 4.0 mi SSE 10.4 mph - N/A   Overcast
11:35 PM 35.6 °F 29.2 °F 28.4 °F 75% 30.11 in 4.0 mi SSE 8.1 mph - N/A   Overcast